Weather History for KPHX - June, 2013

Change the Weather History Date:

Thursday, June 20, 2013

  Actual Average Record
Temperature  
Mean Temperature 93 °F 92 °F  
Max Temperature 106 °F 105 °F 115 °F (1968)
Min Temperature 79 °F 79 °F 61 °F (1964)
Degree Days  
Heating Degree Days 0 0  
Month to date heating degree days 0 0  
Since 1 June heating degree days 0 0  
Since 1 July heating degree days 881 935  
Cooling Degree Days 28 27  
Month to date cooling degree days 595 491  
Year to date cooling degree days 1693 1377  
Since 1 June cooling degree days 595 491  
Growing Degree Days 42 (Base 50)    
Moisture  
Dew Point 27 °F    
Average Humidity 13    
Maximum Humidity 20    
Minimum Humidity 6    
Precipitation  
Precipitation 0.00 in 0.00 in 0.15 in (2000)
Month to date precipitation 0.00 0.01  
Year to date precipitation 2.61 3.22  
Snow  
Snow 0.00 in - - ()
Month to date snowfall 0.0  
Year to date snowfall 0.0  
Since 1 July snowfall 0.0  
Snow Depth 0.00 in    
Sea Level Pressure  
Sea Level Pressure 29.66 in    
Wind  
Wind Speed 6 mph (ENE)    
Max Wind Speed 14 mph    
Max Gust Speed 19 mph    
Visibility 10 miles    
Events      
T = Trace of Precipitation, MM = Missing Value Source: NWS Daily Summary

Daily Weather History Graph

Daily Weather History Graph

Search for Another Location

Airport or City:

Trip Planner

Search our weather history database for the weather conditions in past years. The results will help you decide how hot, cold, wet, or windy it might be!

Date:

Astronomy

Jun. 20, 2013 Rise Set
Actual Time 5:18 AM MST 7:40 PM MST
Civil Twilight 4:49 AM MST 8:09 PM MST
Nautical Twilight 4:14 AM MST 8:45 PM MST
Astronomical Twilight 3:35 AM MST 9:24 PM MST
Moon 4:52 PM MST (6/20) 2:41 AM MST (6/20)
Length of Visible Light 15h 20m
Length of Day
14h 22m
Waxing Gibbous, 89% of the Moon is Illuminated
Jun 20
Waxing Gibbous
Jun 23
Full
Jun 29
Last Quarter
Jul 8
New
Jul 15
First Quarter

Hourly Weather History & Observations

Time (MST) Temp. Dew Point Humidity Pressure Visibility Wind Dir Wind Speed Gust Speed Precip Events Conditions
12:51 AM 93.0 °F 21.0 °F 7% 29.62 in 10.0 mi West 3.5 mph - N/A   Clear
1:51 AM 90.0 °F 24.1 °F 9% 29.61 in 10.0 mi Calm Calm - N/A   Clear
2:51 AM 82.9 °F 35.1 °F 18% 29.62 in 10.0 mi East 8.1 mph - N/A   Clear
3:51 AM 82.0 °F 34.0 °F 18% 29.64 in 10.0 mi East 10.4 mph - N/A   Clear
4:51 AM 80.1 °F 33.1 °F 18% 29.65 in 10.0 mi East 6.9 mph - N/A   Clear
5:51 AM 80.1 °F 35.1 °F 20% 29.68 in 10.0 mi East 9.2 mph - N/A   Clear
6:51 AM 81.0 °F 35.1 °F 19% 29.70 in 10.0 mi East 11.5 mph - N/A   Clear
7:51 AM 84.9 °F 30.9 °F 14% 29.72 in 10.0 mi SE 11.5 mph - N/A   Clear
8:51 AM 88.0 °F 30.0 °F 12% 29.73 in 10.0 mi SE 8.1 mph - N/A   Clear
9:51 AM 93.0 °F 28.9 °F 10% 29.73 in 10.0 mi Variable 6.9 mph - N/A   Clear
10:51 AM 93.9 °F 26.1 °F 9% 29.73 in 10.0 mi ENE 3.5 mph - N/A   Clear
11:51 AM 97.0 °F 25.0 °F 8% 29.72 in 10.0 mi Calm Calm - N/A   Clear
12:51 PM 98.1 °F 26.1 °F 8% 29.70 in 10.0 mi Variable 3.5 mph - N/A   Clear
1:51 PM 100.0 °F 24.1 °F 7% 29.68 in 10.0 mi NNE 5.8 mph - N/A   Clear
2:51 PM 102.0 °F 24.1 °F 6% 29.66 in 10.0 mi Variable 5.8 mph - N/A   Clear
3:51 PM 104.0 °F 24.1 °F 6% 29.64 in 10.0 mi Calm Calm - N/A   Clear
4:51 PM 106.0 °F 24.1 °F 6% 29.62 in 10.0 mi Variable 5.8 mph - N/A   Clear
5:51 PM 102.9 °F 24.1 °F 6% 29.61 in 10.0 mi Variable 4.6 mph - N/A   Clear
6:51 PM 102.0 °F 28.0 °F 7% 29.61 in 10.0 mi North 6.9 mph - N/A   Clear
7:51 PM 100.9 °F 28.9 °F 8% 29.61 in 10.0 mi North 6.9 mph - N/A   Clear
8:51 PM 98.1 °F 25.0 °F 7% 29.63 in 10.0 mi WSW 6.9 mph - N/A   Clear
9:51 PM 95.0 °F 24.1 °F 8% 29.65 in 10.0 mi SW 6.9 mph - N/A   Clear
10:51 PM 93.0 °F 24.1 °F 8% 29.66 in 10.0 mi WSW 5.8 mph - N/A   Clear
11:51 PM 93.9 °F 23.0 °F 8% 29.66 in 10.0 mi NNE 4.6 mph - N/A   Clear